Showing default

METEOR 2-11, 15099

Orbit data source: Space-Track

METEOR 2-11, 15099 is a Commonwealth of Independent States-origin payload satellite in LEO that was launched on Thu, 05 Jul 1984 UTC via a TSIKLON-3 launch vehicle from the Plesetsk Missile And Space Complex (PKMTR). Payload-class satellites include a variety of spacecraft equipped with specific instruments for various scientific and technological missions. These include communications satellites like Starlink; space stations such as the ISS; scientific satellites like the Hubble; Earth observation satellites from companies like Planet Labs, Umbra, and HawkEye 360; GPS; miniature CubeSats for education and research; and military/defense satellites.

Loading next visibility...
Identifier
15099, 1984-072A
Orbit
LEO
Last TLE update
13 hours ago
Origin
Manufacturer
VNIIEM
Mission
Civil Weather
Bus & Motor
METEOR-2, Unknown motor
Mass
~1,500 kg wet, ~1,500 kg dry
Launch date (UTC)
1984-07-05 (41 years ago)
Launch vehicle
TSIKLON-3
Launch site
Plesetsk Missile And Space Complex (PKMTR)
Object type
Payload
Rocket body
Debris
Shape & HBR
Cyl + 2 Pan, 4.5 m
Radar Cross Section
5.718 m², Large (>1 m²)

Expand to show TLE details & history

TLE from 13 hours ago
0 METEOR 2-11
1 15099U 84072A   25128.71404700  .00000095  00000-0  70135-4 0  9990
2 15099  82.5329   1.7497 0013972 142.2724 217.9419 13.85259630 64349
Epoch: 2025-05-08T17:08Z
Definitive object data (Epoch: 2025-05-08T17:08:13.66Z)
Latitude
-0.00007°
Longitude
-122.08781°
Altitude
956.27 km
Speed
7.37 km/s
True Right ascension
00h 06m 59s
True Declination
0° 00' 00"
Sunlit
Object was in daylight at TLE epoch
Visualization TLE readout
Latitude
-49.1157°
Longitude
66.13456°
Altitude
964.07 km
Speed
7.369 km/s
Apparent Right ascension
07h 27m 30s
Apparent Declination
-76° 18' 17"
Sunlit
Object is in full shadow
Visualization observer readout
Local Sidereal Time
14:31:18
Azimuth
197.933° SSW
Elevation
-42.323°
Doppler factor
1
Orbital elements
Apogee altitude
952.67 km
Perigee altitude
932.213 km
Semi-major axis
7,320.578 km
Eccentricity
0.0013972
Inclination
82.5329°
RAAN
1.7497°
Arg. of periapsis
142.2724°
True anomaly
217.84359°
Mean anomaly
217.9419°
Eccentric anomaly
217.89273°
Mean motion
3.46517 °/min
BSTAR
0.000070135
Orbital period
103.89 mins
Loading maneuver chart data...
Loading SW <> Apogee altitude chart data...
Loading historical data...
Loading historical data...
Loading historical data...
Loading historical data...
Loading historical data...
Loading historical data...
Loading historical data...

METEOR 2-11 Visibility forecast

Observer location: undefined°, undefined°

Span
Click to sort rows by Start time (UTC) header in descending order
Start Az.
Max El. time (UTC)
Max El. Az.
Max El.
End time (UTC)
End Az.
11 mins2025-05-09 15:46:28.760Z166.706° S2025-05-09 15:51:28.760Z107.404° ESE38.832°2025-05-09 15:57:28.760Z17.548° NNE
7 mins2025-05-09 17:34:28.760Z258.323° W2025-05-09 17:37:28.760Z296.216° NW19.785°2025-05-09 17:41:28.760Z337.923° N
9 mins2025-05-10 02:40:28.760Z15.694° NNE2025-05-10 02:44:28.760Z80.78° E33.644°2025-05-10 02:49:28.760Z144.765° SSE
8 mins2025-05-10 04:25:28.760Z317.175° NNW2025-05-10 04:28:28.760Z279.102° WNW23.838°2025-05-10 04:33:28.760Z220.494° SW
|